DW2465 Weather Reports


time (UTC)temp
F
wind
direction
speed
knots
gust
knots
rain 1hr
in
rain 24hr
in
rain mn
in
humidity
%
barometer
mb
20260901211546 83 271 0.0 0.0 0.00 0.00 0.00 47 1010.8
20260901210015 83 278 0.0 0.0 0.00 0.00 0.00 49 1010.9
20260901204515 84 281 0.0 0.0 0.00 0.00 0.00 45 1010.8
20260901203044 84 281 0.0 0.0 0.00 0.00 0.00 41 1010.7
20260901201541 86 248 0.0 0.0 0.00 0.00 0.00 40 1011.2
20260901200010 86 244 0.0 0.0 0.00 0.00 0.00 45 1011.1
20260901194508 85 303 0.0 0.0 0.00 0.00 0.00 45 1011.4
20260901193005 84 259 0.0 0.0 0.00 0.00 0.00 46 1011.5
20260901191614 83 263 0.0 0.0 0.00 0.00 0.00 47 1011.5
20260901190134 83 327 0.0 0.0 0.00 0.00 0.00 48 1011.6
20260901184559 83 330 0.0 0.0 0.00 0.00 0.00 46 1011.5
20260901183059 83 325 0.0 0.0 0.00 0.00 0.00 49 1011.5
20260901181558 83 327 0.0 0.0 0.00 0.00 0.00 50 1011.6
20260901180055 83 258 0.0 0.0 0.00 0.00 0.00 51 1012.0
20260901174556 82 110 0.0 0.0 0.00 0.00 0.00 53 1012.3
20260901173051 82 154 0.0 0.0 0.00 0.00 0.00 55 1012.4
20260901171559 82 205 0.0 0.0 0.00 0.00 0.00 53 1012.5
20260901170045 81 350 0.0 0.0 0.00 0.00 0.00 57 1012.6
20260901164550 80 339 0.0 0.0 0.00 0.00 0.00 58 1012.5
20260901163100 79 300 0.0 0.0 0.00 0.00 0.00 60 1012.6
20260901161536 79 298 0.0 0.0 0.00 0.00 0.00 62 1012.5
20260901160033 77 321 0.0 0.0 0.00 0.00 0.00 64 1012.4
20260901154545 77 321 0.0 0.0 0.00 0.00 0.00 64 1012.4
20260901153036 76 311 0.0 0.0 0.00 0.00 0.00 66 1012.4
20260901151523 75 275 0.0 0.0 0.00 0.00 0.00 66 1012.5
20260901150021 75 266 0.0 0.0 0.00 0.00 0.00 67 1012.5
20260901144521 74 270 0.0 0.0 0.00 0.00 0.00 68 1012.5
20260901143045 73 264 0.0 0.0 0.00 0.00 0.00 75 1012.6
20260901141541 71 264 0.0 0.0 0.00 0.00 0.00 76 1012.7
20260901140035 70 242 0.0 0.0 0.00 0.00 0.00 79 1012.7
20260901134535 68 232 0.0 0.0 0.00 0.00 0.00 83 1012.7
20260901133035 67 236 0.0 0.0 0.00 0.00 0.00 88 1012.9
20260901131534 66 238 0.0 0.0 0.00 0.00 0.00 90 1012.8
20260901130029 66 248 0.0 0.0 0.00 0.00 0.00 91 1012.5
20260901124529 65 248 0.0 0.0 0.00 0.00 0.00 93 1012.5
20260901123028 64 257 0.0 0.0 0.00 0.00 0.00 94 1012.6
20260901121535 63 256 0.0 0.0 0.00 0.00 0.00 94 1012.3
20260901120023 63 249 0.0 0.0 0.00 0.00 0.00 93 1012.2
20260901114524 63 246 0.0 0.0 0.00 0.00 0.00 93 1012.1
20260901113021 63 244 0.0 0.0 0.00 0.00 0.00 93 1011.9
20260901111520 63 221 0.0 0.0 0.00 0.00 0.00 93 1011.9
20260901110015 64 283 0.0 0.0 0.00 0.00 0.00 93 1011.7
20260901104526 64 286 0.0 0.0 0.00 0.00 0.00 93 1011.7
20260901103017 64 290 0.0 0.0 0.00 0.00 0.00 93 1011.3
20260901101514 64 290 0.0 0.0 0.00 0.00 0.00 93 1011.3
20260901100011 64 290 0.0 0.0 0.00 0.00 0.00 93 1011.3
20260901094513 65 290 0.0 0.0 0.00 0.00 0.00 93 1011.1
20260901093007 65 290 0.0 0.0 0.00 0.00 0.00 93 1011.0
20260901091512 65 290 0.0 0.0 0.00 0.00 0.00 93 1010.9
20260901090006 64 290 0.0 0.0 0.00 0.00 0.00 92 1011.0
20260901084506 65 290 0.0 0.0 0.00 0.00 0.00 92 1010.9
20260901083002 65 290 0.0 0.0 0.00 0.00 0.00 92 1011.2
20260901081501 65 290 0.0 0.0 0.00 0.00 0.00 91 1010.9
20260901080112 65 290 0.0 0.0 0.00 0.00 0.00 90 1010.9
20260901074528 65 290 0.0 0.0 0.00 0.00 0.00 90 1011.1
20260901073030 65 290 0.0 0.0 0.00 0.00 0.00 90 1011.1
20260901071524 66 290 0.0 0.0 0.00 0.00 0.00 89 1011.4
20260901070028 66 290 0.0 0.0 0.00 0.00 0.00 89 1011.4
20260901064524 66 290 0.0 0.0 0.00 0.00 0.00 88 1011.3
20260901063020 67 290 0.0 0.0 0.00 0.00 0.00 87 1011.5
20260901061515 68 290 0.0 0.0 0.00 0.00 0.00 85 1011.6
20260901060016 68 290 0.0 0.0 0.00 0.00 0.00 84 1011.5
20260901054509 69 290 0.0 0.0 0.00 0.00 0.00 82 1011.4
20260901053007 69 290 0.0 0.0 0.00 0.00 0.00 81 1011.3
20260901051501 70 298 0.0 0.0 0.00 0.00 0.00 80 1011.2
20260901050059 70 288 0.0 0.0 0.00 0.00 0.00 80 1010.8
20260901044558 70 289 0.0 0.0 0.00 0.00 0.00 80 1010.8
20260901043057 70 291 0.0 0.0 0.00 0.00 0.00 82 1010.7
20260901041554 69 246 0.0 0.0 0.00 0.00 0.00 83 1010.6
20260901040054 69 246 0.0 0.0 0.00 0.00 0.00 84 1010.7
20260901034553 69 242 0.0 0.0 0.00 0.00 0.00 84 1010.6
20260901033051 70 242 0.0 0.0 0.00 0.00 0.00 84 1010.7
20260901031527 71 242 0.0 0.0 0.00 0.00 0.00 82 1010.7
20260901030020 71 242 0.0 0.0 0.00 0.00 0.00 81 1010.4
20260901024517 72 242 0.0 0.0 0.00 0.00 0.00 80 1010.4
20260901023016 72 242 0.0 0.0 0.00 0.00 0.00 78 1010.3
20260901021528 73 240 0.0 0.0 0.00 0.00 0.00 77 1010.1
20260901020015 73 269 0.0 0.0 0.00 0.00 0.00 77 1010.1
20260901014511 74 269 0.0 0.0 0.00 0.00 0.00 75 1010.0
20260901013009 75 271 0.0 0.0 0.00 0.00 0.00 74 1009.7
20260901011511 76 275 0.0 0.0 0.00 0.00 0.00 73 1009.6
20260901010022 77 262 0.0 0.0 0.00 0.00 0.00 71 1009.6
20260901004505 78 263 0.0 0.0 0.00 0.00 0.00 68 1009.6
20260901003004 79 261 0.0 0.0 0.00 0.00 0.00 66 1009.4
20260901001504 80 253 0.0 0.0 0.00 0.00 0.00 65 1009.6
20260901000002 81 262 0.0 0.0 0.00 0.00 0.00 62 1009.5
20260831234600 82 258 0.0 0.0 0.00 0.00 0.00 60 1009.5
20260831233100 83 252 0.0 0.0 0.00 0.00 0.00 58 1009.4
20260831231612 84 252 0.0 0.0 0.00 0.00 0.00 54 1009.4
20260831230059 86 253 0.0 0.0 0.00 0.00 0.00 50 1009.4
20260831224555 84 272 0.0 0.0 0.00 0.00 0.00 51 1009.4
20260831223102 85 296 0.0 0.0 0.00 0.00 0.00 51 1009.3
20260831221558 84 261 0.0 0.0 0.00 0.00 0.00 53 1009.4
20260831220053 85 274 0.0 0.0 0.00 0.00 0.00 52 1009.0
20260831214521 86 284 0.0 0.0 0.00 0.00 0.00 50 1009.0
20260831213031 87 296 0.0 0.0 0.00 0.00 0.00 47 1008.8